14:45
Airports
History
Links
Donate
Help keep this website running!
PayPal
Bitcoin
This page is community maintained. The information is intended for PC simulator navigation or reference.
Always use approved charts for navigation.
UNBB
BARNAUL
BARNAUL (UNBB)
Barnaul, Altai Krai, Russian Federation (656057)
(C)
Lat/Lng:53° 21' 49.59" N / 83° 32' 18.72" E
53.363774 / 83.538534
Elevation:838'ft / 255mMSL
ID / ICAO:UNBB
Runways:1
Longest:06-24
Concrete 2,849m / 9,345ft
Controlled:Yes
METAR14:30 GMT 2017-12-18
Altimeter: 30.80
Visibility: 6.2 statute miles
Wind: 3.9 knots (from 340°)
Temp: -18°c / -0°f
Humidity: 77.2%

METAR: UNBB 181430Z 34002MPS CAVOK M18/M21 Q1043 R24/450358 NOSIG RMK QFE760

(Powered by phpweather)
Airport Radio Frequencies
Tower: 123.5
Approach: 120.3, 124, 129
Nearby VORs <50NM
Nearby NDBs
Runway 06 / 24
Dimensions:2848.5 x 50m 9345' x 164'ft
Surface:Concrete
Edge Lights:High intensity
Runway 06 [A]Runway 24 [B]
Heading:067°TH 247°TH
Lat:
Lng:
53° 21' 31.73"N
83° 31' 7.55"E
53° 22' 7.44"N
83° 33' 29.89"E
ALS:MALSCalvert
User Notes and Comments
53° 21' 49.59" N / 83° 32' 18.72" E
Distance To
Airport ID:
Nearby Airports
(C) Novosibirsk Tolmachevo 119.4 NM
UNNT NNW 342°
(C) Novosibirsk Yeltsovka 121.4 NM
UNNE N 349°
(C) Novosibirsk Severny 122.2 NM
UNCC NNW 348°
(C) KEMEROVO 167.5 NM
UNEE NE 38°
(C) UST KAMENOGORSK 234.2 NM
UASK S 190°
(C) SEMIPALATINSK 251.4 NM
UASS SW 214°
(C) PAVLODAR 281.9 NM
UASP WSW 253°
VFR Chart
Flight Planning at SkyVector.com